This demonstration page uses our WeatherBlox Daily Observations layout. Learn more.

36.17497, -115.13722

Hourly Observations for May 31, 2015

Temp ( °F °C ) Dew Point ( °F °C ) Humidity (%) Winds ( mph kmh ) Pressure ( in mb ) Visibility ( mi km ) Precip ( " mm )
12:53 am 00:53 Clear 81 27.2 18 -7.8 9 9 Calm 29.85 1011 10 16.0934 0 0
1:53 am 01:53 Clear 79 26.1 28 -2.2 15 15 Calm 29.84 1011 10 16.0934 0 0
2:53 am 02:53 Clear 76 24.4 28 -2.2 17 17 NW 6 9 29.83 1010 10 16.0934 0 0
3:53 am 03:53 Clear 74 23.3 28 -2.2 18 18 NNW 3 6 29.84 1011 10 16.0934 0 0
4:53 am 04:53 Clear 72 22.2 25 -3.9 17 17 NNW 6 9 29.85 1011 10 16.0934 0 0
5:53 am 05:53 Sunny 73 22.8 25 -3.9 17 17 NW 5 7 29.86 1011 10 16.0934 0 0
6:53 am 06:53 Sunny 76 24.4 27 -2.8 16 16 N 3 6 29.88 1012 10 16.0934 0 0
7:53 am 07:53 Sunny 82 27.8 22 -5.6 11 11 Calm 29.89 1012 10 16.0934 0 0
8:53 am 08:53 Sunny 84 28.9 21 -6.1 10 10 SE 3 6 29.9 1013 10 16.0934 0 0
9:53 am 09:53 Sunny 90 32.2 21 -6.1 8 8 VRB 5 7 29.89 1012 10 16.0934 0 0
10:53 am 10:53 Sunny 93 33.9 19 -7.2 7 7 SE 9 15 29.88 1012 10 16.0934 0 0
11:53 am 11:53 Sunny 97 36.1 20 -6.7 6 6 SE 13 20 29.85 1011 10 16.0934 0 0
12:41 pm 12:41 Sunny 100 37.8 18 -7.8 5 5 SW 15 24 29.68 1005 10 16.0934 0 0
12:53 pm 12:53 Sunny 100 37.8 18 -7.8 5 5 SW 13 20 29.82 1010 10 16.0934 0 0
1:53 pm 13:53 Sunny 102 38.9 18 -7.8 5 5 S 16 26 29.78 1009 10 16.0934 0 0
2:53 pm 14:53 Sunny 101 38.3 15 -9.4 4 4 SSW 7 11 29.76 1008 10 16.0934 0 0
3:53 pm 15:53 Sunny 103 39.4 18 -7.8 5 5 SSW 17 28 29.74 1007 10 16.0934 0 0
4:53 pm 16:53 Sunny 103 39.4 16 -8.9 4 4 S 12 19 29.72 1007 10 16.0934 0 0
5:53 pm 17:53 Sunny 101 38.3 19 -7.2 5 5 SW 10 17 29.71 1006 10 16.0934 0 0
6:53 pm 18:53 Sunny 99 37.2 20 -6.7 6 6 SSW 13 20 29.71 1006 10 16.0934 0 0
7:53 pm 19:53 Clear 97 36.1 22 -5.6 7 7 SSW 12 19 29.71 1006 10 16.0934 0 0
8:53 pm 20:53 Clear 95 35 23 -5 7 7 SSW 13 20 29.73 1007 10 16.0934 0 0
9:53 pm 21:53 Clear 92 33.3 23 -5 8 8 SSW 10 17 29.75 1008 10 16.0934 0 0
10:53 pm 22:53 Clear 90 32.2 24 -4.4 9 9 SSW 10 17 29.75 1008 10 16.0934 0 0
11:53 pm 23:53 Clear 87 30.6 25 -3.9 10 10 SW 8 13 29.76 1008 10 16.0934 0 0

Powered by AerisWeather